Theta_e
294 289 287 285 289 291 290 290 289 288 289 287 286 283 285 284 287 289 289 291 290 288 288 288 287 287 289 290 292 292 290 289 291 292 294 295 295 295 294 294 295 295 298 299 300 300 304 308 309 310 310 310 310 310 310 310 309 310 310 308 308 307 308 309 306 305 305 304 303 302 306 308 306 307 306 306 305 305 308 312 314 316 317 319 320 319
291 287 287 288 289 291 291 289 287 287 287 289 285 285 285 283 286 289 290 291 290 288 284 284 285 287 289 290 291 291 288 290 291 291 292 294 295 295 295 295 294 295 296 299 298 299 301 305 306 307 309 308 309 309 309 309 309 308 307 309 308 305 306 307 307 305 304 301 301 301 303 299 302 304 306 305 304 306 304 306 312 314 315 317 317 316
287 286 289 289 290 288 287 288 287 288 286 285 285 283 284 286 286 290 289 290 289 288 285 283 286 288 289 290 291 290 292 293 292 292 294 294 294 294 294 295 295 293 294 295 297 298 302 304 306 307 307 308 311 309 309 309 307 307 307 307 306 305 306 305 305 305 304 301 299 299 298 301 299 299 301 300 300 303 305 305 306 311 313 314 314 315
286 286 289 290 289 291 288 287 288 286 285 284 283 284 283 284 286 285 286 288 290 288 287 285 286 290 291 289 291 294 293 293 292 292 293 293 294 294 295 295 295 294 295 294 297 299 300 303 305 305 306 307 307 306 306 306 307 307 306 306 305 305 304 304 303 304 301 301 299 299 300 298 297 298 299 298 299 302 304 305 304 306 311 313 313 313
284 289 291 288 288 292 289 286 287 286 286 284 282 282 284 286 286 283 287 288 284 289 287 285 284 285 282 283 285 285 286 290 292 290 292 293 293 294 293 292 293 295 296 295 295 297 299 301 304 306 306 305 306 306 307 306 307 308 306 305 305 304 304 303 302 303 301 300 298 297 297 297 298 298 298 298 299 301 303 304 303 305 308 311 312 313
287 289 290 289 288 287 288 287 285 286 282 285 285 285 286 286 288 288 284 285 277 280 282 286 279 275 278 283 284 287 285 288 286 286 289 291 290 290 292 294 293 293 294 295 297 299 300 303 303 301 303 304 305 305 306 307 307 306 305 305 304 303 303 303 302 302 301 302 300 298 299 299 300 300 298 300 301 299 300 302 303 304 306 309 310 311
287 290 291 290 288 286 286 285 287 285 281 282 286 288 287 287 286 285 286 282 279 278 286 285 280 276 280 284 287 288 287 289 290 289 292 293 289 289 292 292 293 294 294 294 295 297 298 299 301 301 302 304 304 305 304 305 305 305 305 305 304 303 302 303 302 301 301 301 301 302 302 303 303 303 300 301 301 300 300 301 302 303 303 306 309 309
290 291 288 288 287 286 286 287 288 285 283 283 284 287 287 287 286 284 281 282 278 279 281 281 278 277 279 284 285 286 286 288 288 290 291 292 288 289 291 293 292 293 294 297 297 297 298 300 302 303 303 303 305 303 303 304 304 304 304 304 303 302 302 302 302 301 302 302 301 301 302 303 304 303 301 300 300 299 299 299 300 301 302 303 306 309
290 289 288 287 284 284 285 284 290 284 283 283 287 287 285 286 285 283 283 282 282 282 280 277 283 282 277 282 285 285 285 284 287 290 291 291 288 288 290 291 292 293 295 296 297 298 298 299 300 301 301 302 301 302 303 304 304 304 303 303 302 302 301 300 301 301 301 302 301 302 303 303 304 305 302 300 299 298 298 298 299 300 301 301 303 307
290 289 289 288 286 285 286 288 287 288 289 290 287 288 287 286 284 282 280 283 279 278 274 279 282 276 278 279 281 281 285 286 288 289 289 289 289 288 291 293 293 293 293 293 295 296 297 298 299 299 299 299 302 302 302 302 302 302 302 302 301 301 301 300 300 301 301 301 301 301 302 303 304 304 302 300 298 298 297 297 297 298 300 300 301 303
291 293 292 289 287 287 288 290 287 289 290 290 288 289 285 282 281 278 278 276 278 273 274 278 280 280 277 280 282 284 285 285 286 287 286 288 292 293 293 292 294 294 293 294 294 294 295 295 296 297 300 301 298 299 301 301 302 301 302 301 301 301 301 299 299 300 300 301 301 302 302 303 303 303 301 299 297 296 296 297 296 297 299 300 301 300
289 290 291 290 292 290 289 290 289 288 288 289 285 280 282 280 279 277 273 276 274 268 274 278 281 280 275 277 282 285 286 286 288 289 289 287 290 292 293 293 293 293 293 292 294 295 294 295 295 296 298 299 299 298 300 300 300 301 301 301 301 300 299 299 299 299 300 301 301 302 303 303 304 303 301 300 298 296 296 297 296 297 298 298 300 299
286 288 289 290 293 291 288 289 289 286 286 285 282 282 278 273 271 274 268 275 271 272 280 279 280 281 281 283 287 287 288 289 287 288 289 290 290 292 293 293 292 290 291 293 292 292 293 294 296 297 298 297 298 300 300 300 300 300 300 300 300 299 298 298 298 298 299 299 300 301 302 303 304 304 302 301 300 297 297 297 296 296 296 297 298 298
284 283 287 288 291 292 290 288 285 286 286 284 284 278 274 271 270 266 261 265 268 275 277 280 281 280 280 283 290 292 293 289 287 287 287 289 292 294 293 292 292 290 291 291 291 291 292 295 296 297 298 299 299 299 300 300 300 300 299 299 300 300 298 297 297 298 298 299 299 300 301 303 303 304 303 302 301 299 298 298 297 296 297 297 298 299
278 279 285 287 286 290 290 289 290 286 287 285 282 283 279 270 267 267 266 272 271 272 276 278 277 275 278 284 287 289 291 288 288 288 287 288 290 290 290 290 290 290 290 289 290 292 294 295 295 297 298 298 299 299 299 299 299 298 299 299 299 299 297 297 297 297 298 298 299 299 300 301 302 303 302 302 301 300 298 298 297 297 297 298 299 300
283 281 284 288 288 289 290 290 286 285 286 282 281 281 278 277 274 272 267 269 268 272 275 276 278 278 282 284 286 288 288 289 288 287 286 287 287 292 293 292 293 292 292 291 291 292 293 293 293 295 297 298 299 298 298 299 299 299 299 299 299 299 297 297 296 297 297 298 298 298 299 300 302 302 302 301 300 300 299 299 298 297 297 298 299 300
281 281 286 287 288 288 288 289 290 286 282 283 284 279 280 281 281 274 272 277 273 271 274 272 278 281 282 284 289 287 287 290 288 287 287 288 287 287 292 292 291 292 292 292 293 294 294 291 293 295 296 298 298 298 299 300 299 299 299 298 298 298 296 296 296 297 297 297 297 298 299 300 301 302 301 301 300 299 299 299 298 297 297 297 298 298
282 278 285 286 287 289 288 288 288 287 285 285 280 282 283 284 281 278 273 267 265 270 273 274 277 278 278 279 282 287 285 285 285 289 289 288 286 288 291 290 292 293 294 293 293 293 293 292 294 295 296 297 299 299 299 299 299 299 299 299 298 298 297 296 296 296 296 296 297 297 298 299 301 302 302 301 300 299 298 298 298 298 296 296 297 297
286 281 285 285 285 287 286 290 289 289 287 283 281 284 285 279 278 279 273 271 268 266 267 273 274 275 279 282 282 285 286 287 287 288 288 290 291 290 290 288 289 290 290 293 293 294 294 294 295 295 296 297 297 298 298 299 299 299 298 298 299 299 298 297 296 296 296 296 297 297 298 298 300 302 302 301 301 299 298 297 298 297 297 296 296 295
286 280 281 285 286 287 286 287 284 285 289 287 288 286 284 281 274 275 278 271 274 267 265 271 270 280 281 281 283 286 285 284 284 284 286 290 291 291 289 289 289 289 291 292 292 294 295 295 295 296 296 296 297 297 298 298 298 299 299 298 298 297 296 295 295 295 295 295 296 296 296 297 299 300 301 301 300 299 298 298 297 297 296 295 294 294
284 281 275 282 284 285 283 284 284 287 285 286 285 283 286 279 281 279 279 274 273 265 264 266 272 277 279 282 285 288 288 287 288 289 288 288 289 288 287 289 290 289 290 291 293 294 295 295 295 295 295 295 293 294 296 298 298 298 298 298 297 297 297 296 296 295 295 294 294 294 295 295 296 297 299 300 300 299 298 298 297 297 296 293 292 292
283 282 278 280 282 281 282 283 285 289 291 289 288 285 287 281 278 275 275 277 271 274 269 265 274 281 283 285 286 285 286 285 286 287 288 288 287 288 289 288 288 289 290 291 293 293 295 294 294 293 291 291 292 295 296 297 297 297 298 299 298 297 298 297 296 295 294 294 294 294 295 294 295 296 297 298 299 298 298 297 296 296 293 291 290 290
286 281 282 277 282 285 284 287 285 285 285 286 286 285 287 283 282 275 273 274 274 275 275 272 268 281 286 287 287 286 286 285 284 285 287 286 287 287 289 289 290 291 292 294 292 292 293 293 292 293 293 294 295 296 295 296 298 299 298 298 298 297 298 298 297 295 294 294 293 293 293 293 293 293 293 295 297 297 297 296 296 295 293 292 291 290
291 279 278 279 280 280 283 283 284 283 287 287 286 282 284 283 282 281 275 275 280 274 275 272 270 281 286 286 286 285 284 288 287 285 290 289 290 291 291 290 291 291 292 291 291 291 292 289 288 288 290 292 293 293 295 297 297 298 298 298 297 297 298 296 296 294 294 293 293 292 291 292 292 291 292 293 294 294 295 295 295 294 293 292 290 290
283 279 284 272 271 278 278 283 283 284 286 282 281 283 285 284 282 279 277 275 277 277 279 277 274 282 289 284 284 283 285 287 288 289 288 293 289 288 290 291 292 291 291 292 293 293 291 289 289 291 291 293 293 293 294 296 297 297 298 297 297 297 296 295 294 293 293 292 291 290 290 290 290 291 291 292 292 292 293 294 294 293 293 292 290 289
288 282 283 276 276 274 272 275 280 282 283 283 279 282 286 287 283 283 279 278 276 277 279 278 280 285 287 286 289 285 285 288 286 286 286 287 289 291 289 289 291 292 293 294 294 291 293 293 289 289 290 292 292 294 295 295 296 297 297 297 297 296 295 295 293 293 293 291 290 290 289 290 290 291 291 291 291 292 293 293 293 293 292 291 291 289
278 282 285 285 283 281 283 283 283 285 282 283 283 284 284 285 286 286 279 276 281 279 278 284 285 285 285 285 285 286 285 286 287 288 291 292 290 289 288 290 291 292 293 293 292 292 289 290 293 293 292 293 292 292 293 294 295 295 295 296 295 296 296 294 293 293 292 291 290 290 290 290 290 291 291 291 291 291 291 292 293 293 292 291 291 289
277 283 284 285 286 286 287 282 284 290 286 287 284 283 285 285 285 285 284 283 283 278 278 284 283 283 287 287 285 288 289 288 287 288 290 290 290 293 295 293 292 290 291 291 291 292 293 294 293 292 293 291 291 291 292 293 294 294 295 296 296 295 294 294 292 292 292 291 290 291 291 291 291 290 291 290 290 290 290 291 292 293 292 291 290 290
283 282 285 283 284 285 283 282 285 287 287 287 286 285 284 285 284 284 285 288 284 283 282 283 284 285 287 289 288 290 291 291 292 293 292 292 291 290 290 291 292 292 292 292 293 294 294 294 295 294 292 290 288 290 291 291 292 292 293 294 295 292 294 292 291 291 291 290 291 292 292 290 289 290 289 289 289 289 289 290 290 291 291 291 290 290
286 279 283 284 285 285 282 282 284 286 285 284 285 285 287 286 285 286 287 288 286 285 287 287 284 285 289 290 287 290 291 292 292 290 290 289 291 291 290 290 291 292 292 293 294 295 295 296 295 293 289 288 289 290 291 292 292 292 293 294 293 292 292 290 291 291 291 291 292 292 291 289 289 289 289 289 289 289 289 289 289 289 289 290 290 290
288 281 286 281 280 282 283 281 281 284 284 283 282 284 285 286 286 287 287 287 287 285 286 285 284 285 291 289 291 293 292 290 289 289 291 292 290 289 291 291 292 292 294 294 294 295 295 294 291 289 289 291 291 291 292 292 292 291 291 292 292 292 291 290 291 290 291 292 292 292 289 289 289 289 289 289 289 289 288 288 288 288 289 289 289 289
286 279 278 278 278 278 279 281 281 279 280 280 280 282 283 284 283 285 284 285 284 284 285 285 284 285 291 289 293 294 289 290 292 293 291 290 292 292 291 292 291 292 293 294 294 295 292 288 289 290 291 292 291 291 290 291 291 289 291 292 291 290 288 289 290 291 291 292 292 290 290 289 288 288 289 289 289 288 288 288 287 288 288 289 288 288
285 281 280 276 277 277 277 280 278 279 279 278 282 284 285 284 286 287 285 286 288 289 285 283 285 291 293 290 287 291 289 291 291 291 291 291 291 291 292 293 293 292 292 293 293 292 290 289 290 291 290 289 290 290 289 289 288 289 291 290 291 288 288 289 290 291 291 291 290 290 290 289 288 288 288 288 288 288 287 287 287 288 288 288 289 288
283 284 281 280 279 275 275 277 279 279 274 278 289 291 288 286 285 283 284 288 289 289 288 291 292 293 292 289 290 292 291 289 293 294 294 295 293 292 291 291 292 292 292 291 290 289 289 289 289 289 289 289 288 288 287 287 288 291 289 288 287 288 288 289 289 289 290 290 290 290 289 288 288 288 288 288 287 287 287 287 287 288 288 288 287 288
285 283 280 276 278 277 275 279 277 275 277 288 289 289 291 291 290 287 289 290 290 290 290 289 290 291 293 293 293 292 292 292 292 293 293 291 291 291 292 292 291 291 292 290 289 289 288 289 288 286 286 288 288 286 286 286 285 286 286 286 287 286 288 288 289 288 289 289 290 289 288 288 288 288 288 287 287 287 287 287 287 287 287 287 287 287
285 285 278 279 278 277 274 275 275 277 283 283 286 288 288 288 287 287 285 287 289 290 290 290 292 293 294 294 293 293 291 291 290 291 291 290 290 293 292 293 293 291 290 290 290 288 288 289 290 291 291 288 286 285 285 287 285 286 286 285 285 285 286 287 288 288 288 288 289 288 288 288 287 287 287 287 286 286 286 286 287 287 287 287 287 287
289 285 283 281 281 280 278 278 279 282 282 283 285 284 287 286 284 286 284 286 290 292 291 291 292 293 293 293 294 294 290 289 289 293 288 291 293 290 292 291 291 290 288 287 287 289 288 287 287 287 287 285 285 284 286 285 284 285 285 286 284 285 285 285 287 288 288 288 288 288 288 288 288 287 287 287 286 286 286 286 286 286 287 286 286 286
287 287 285 285 282 284 282 278 277 278 278 283 289 287 290 291 290 289 287 287 292 291 292 292 291 293 292 292 293 293 290 288 289 291 289 290 289 289 287 287 288 289 287 289 288 288 288 285 284 284 285 284 284 284 284 283 283 285 285 284 284 284 285 285 287 288 287 288 288 288 288 288 287 287 287 287 286 287 287 287 286 286 286 286 286 286
287 286 285 286 285 283 281 279 279 278 281 288 286 289 289 290 291 287 285 285 291 288 290 291 291 292 292 292 292 289 287 286 288 288 288 286 286 285 289 289 288 287 287 286 288 289 287 285 286 285 284 284 285 285 283 282 285 286 286 284 283 283 285 286 287 287 288 288 288 287 287 287 287 287 287 287 287 287 287 286 286 286 286 286 286 286
286 286 284 284 282 284 283 281 279 282 283 285 284 285 285 286 291 289 280 282 288 289 292 291 291 291 293 289 286 286 287 285 289 289 286 286 289 287 288 289 287 287 287 285 285 284 285 284 286 286 285 285 286 285 283 282 284 285 285 284 283 284 286 288 288 288 286 287 286 286 286 286 287 287 287 287 287 287 287 287 286 285 285 285 285 285
285 284 284 282 284 284 285 282 283 284 287 285 284 283 284 288 291 284 279 286 289 289 288 291 291 289 287 287 289 288 288 291 290 288 286 282 287 289 287 287 287 287 289 288 288 285 286 285 286 286 286 286 284 283 282 283 285 285 284 283 283 286 288 288 286 285 286 285 285 285 286 286 286 287 287 287 287 287 286 285 285 284 284 284 283 283
285 285 284 284 283 283 284 282 283 285 287 286 286 287 288 289 282 283 288 286 286 287 285 286 288 287 286 286 285 287 286 284 285 283 284 285 286 285 284 283 284 286 286 284 283 283 284 284 284 284 285 284 283 282 282 283 284 284 284 283 286 288 286 284 285 284 284 284 285 285 285 285 286 286 287 287 286 285 285 284 284 284 284 283 283 282
285 284 281 283 284 284 283 281 281 278 287 290 289 287 287 287 287 288 286 286 285 286 286 287 287 288 287 288 285 285 287 286 285 287 285 284 284 285 287 286 286 286 285 286 288 284 284 285 286 286 287 287 286 284 283 282 282 283 283 284 287 286 285 284 283 283 283 283 284 284 285 285 285 286 286 286 285 285 285 283 282 282 282 282 281 281
289 285 285 286 288 282 282 280 281 287 288 292 293 288 287 289 290 288 290 290 289 287 287 287 287 285 284 287 287 287 286 287 289 287 286 285 285 284 284 285 285 284 285 285 285 284 282 284 284 285 286 287 286 284 282 281 282 283 282 285 286 284 283 282 282 282 282 283 283 283 283 284 284 284 284 284 284 283 284 282 281 281 281 281 281 281
288 287 289 286 289 286 285 287 288 287 289 290 290 290 290 291 290 288 289 289 289 290 285 287 288 287 286 287 287 288 289 289 289 287 289 288 286 287 287 287 286 287 287 287 287 285 284 284 285 285 286 287 286 285 283 280 281 282 283 285 283 282 282 282 280 281 282 283 283 283 283 282 282 282 282 282 283 283 283 281 280 281 279 280 280 280
287 289 288 288 286 289 288 288 289 287 286 288 290 289 289 289 288 288 289 290 288 288 286 289 286 286 285 287 288 286 289 289 287 287 286 286 286 286 285 286 287 287 286 286 286 285 283 282 280 280 283 286 286 285 284 281 280 283 286 284 283 282 281 280 280 281 282 282 282 282 281 280 280 279 280 281 282 283 283 283 281 281 280 279 279 279
288 288 289 286 287 287 283 288 287 288 286 288 288 287 286 287 287 287 288 288 290 288 286 286 287 286 285 283 287 287 286 286 286 286 286 286 286 286 285 285 285 285 285 286 287 283 283 280 282 283 283 284 286 287 285 283 283 284 284 283 283 282 281 280 280 281 282 282 282 280 277 279 280 279 278 277 278 279 279 280 280 280 279 279 279 278
285 288 286 284 284 286 285 286 286 286 286 288 289 288 287 287 287 287 287 287 287 287 287 287 287 287 286 287 285 286 285 285 285 285 286 285 285 285 286 285 285 285 285 284 284 282 279 280 282 283 283 284 286 285 284 283 283 283 282 282 281 280 279 280 280 281 282 281 280 279 277 278 278 279 277 276 278 278 276 276 279 279 279 279 279 278
284 286 283 285 284 285 286 286 285 287 288 287 286 286 285 285 285 286 286 285 284 283 284 285 286 286 286 287 286 286 285 285 284 283 283 283 283 283 284 284 285 284 285 285 285 283 283 281 282 283 282 284 284 284 283 283 283 282 281 281 279 277 278 280 280 280 279 279 277 278 276 276 276 277 277 276 275 275 276 279 278 279 279 279 281 281
284 281 284 284 282 282 284 285 286 285 284 287 284 282 282 282 284 284 283 282 282 281 282 283 284 286 286 286 286 285 284 284 284 283 282 283 283 283 284 284 284 284 284 284 284 282 282 280 280 281 282 283 283 282 282 282 282 281 280 279 277 275 277 278 279 278 279 278 277 277 275 275 275 273 275 275 275 275 272 278 280 279 278 278 281 283
283 285 285 283 283 282 286 287 286 288 286 286 283 280 280 281 283 281 279 279 279 280 281 282 282 282 283 283 283 282 281 281 281 282 281 281 282 283 282 282 282 282 283 283 282 282 282 282 281 280 280 281 281 281 281 281 281 281 280 279 278 275 276 277 278 278 278 278 277 278 277 276 275 276 275 276 275 273 275 273 276 283 284 282 282 283
Wind_Speed
1 6 6 7 8 9 6 7 2 4 8 5 4 4 4 5 0 1 1 1 0 1 5 5 5 6 11 10 10 9 3 3 7 11 12 11 11 10 10 10 10 9 14 5 5 5 7 8 7 7 6 7 6 6 7 8 8 9 10 8 9 6 5 7 7 5 6 5 3 1 5 5 4 4 2 3 1 2 2 3 4 4 4 6 7 6
4 5 6 7 8 8 8 5 6 7 3 7 6 5 1 0 3 1 0 1 2 1 2 2 2 9 13 12 12 9 4 11 12 11 12 14 12 11 10 12 10 11 3 2 3 5 5 7 7 6 7 7 9 9 9 11 10 8 6 9 8 5 5 6 6 6 5 3 3 4 4 2 4 3 4 3 2 3 1 2 2 4 3 5 6 8
2 7 7 7 6 2 3 5 3 7 5 3 6 4 5 0 0 1 1 2 1 2 5 3 4 9 10 11 11 9 12 11 7 9 12 11 11 10 10 11 10 6 7 4 6 5 7 8 7 8 8 9 12 10 11 8 8 7 8 7 6 6 6 5 5 6 5 2 2 3 2 4 2 1 0 1 1 1 2 2 2 3 4 5 5 7
3 4 9 2 5 8 3 4 7 7 7 7 5 3 4 3 3 1 4 2 1 1 2 1 6 12 7 6 12 14 9 9 5 8 12 9 11 11 13 9 8 9 8 9 8 9 7 7 8 6 8 9 6 7 6 7 10 8 8 7 6 7 5 6 5 6 4 4 3 3 4 3 3 3 1 1 1 0 1 3 2 3 4 5 6 5
6 1 0 4 1 8 6 2 7 5 2 2 3 3 4 2 2 3 2 0 2 1 2 2 3 9 4 4 5 3 3 4 6 4 7 9 9 10 6 5 7 11 9 9 6 5 6 7 11 13 9 7 8 9 10 10 10 8 10 8 8 7 7 6 6 6 5 6 5 5 5 3 4 3 2 2 2 3 3 3 4 5 4 6 6 7
1 2 1 4 3 3 6 3 3 8 2 1 2 3 4 5 5 1 2 3 3 1 2 3 3 4 4 7 8 10 6 6 2 5 10 8 6 6 9 11 7 8 7 7 9 11 12 12 7 5 6 9 8 9 9 8 8 8 8 8 7 6 6 7 7 7 7 7 8 6 6 6 4 5 5 8 8 6 6 6 2 2 4 5 6 6
3 1 2 5 5 3 3 2 3 4 6 3 2 2 4 7 6 4 1 2 1 1 1 2 1 7 7 6 6 8 5 10 12 9 14 14 6 5 6 5 7 8 7 5 5 3 5 5 6 6 8 9 10 8 6 6 7 8 8 8 8 8 7 7 7 7 7 7 7 9 9 8 8 8 5 3 3 5 4 3 5 5 3 4 6 6
1 1 5 4 4 3 3 1 3 7 8 2 1 6 6 7 5 3 5 2 1 2 3 4 2 3 8 9 8 5 5 10 10 14 14 13 5 3 5 7 6 6 6 8 6 5 5 7 10 13 11 9 10 6 6 7 7 9 9 9 9 7 7 7 8 8 8 9 8 8 7 7 8 8 7 7 4 3 4 5 5 5 5 5 6 7
2 3 4 3 2 3 6 3 2 3 4 2 3 7 3 5 4 5 5 3 0 1 7 3 1 1 5 9 5 1 3 5 10 12 12 11 7 5 6 5 6 7 5 3 5 7 9 10 9 6 8 6 5 7 9 9 9 8 7 8 7 8 8 7 9 10 8 8 9 9 8 8 7 7 6 5 5 5 5 6 4 5 6 5 5 6
2 2 3 6 6 5 2 0 2 5 5 1 5 6 6 7 6 4 3 3 1 1 5 2 2 3 8 7 7 3 1 7 10 10 10 10 8 7 4 4 3 2 2 3 4 3 5 5 5 4 3 5 7 5 5 5 5 6 7 8 9 9 8 8 9 9 9 8 8 8 8 9 7 6 6 7 7 6 6 7 7 6 6 6 5 6
1 3 4 4 3 2 4 0 2 1 2 8 6 7 6 8 4 3 7 2 2 1 7 6 2 2 5 5 7 3 5 6 4 7 6 5 4 3 5 3 1 1 1 2 2 1 1 1 2 4 6 6 4 4 5 6 7 7 8 9 10 9 8 8 9 9 10 9 8 9 8 9 8 7 7 7 7 7 7 8 8 7 7 6 7 6
2 1 1 1 3 3 3 5 5 2 3 6 3 4 5 3 6 4 4 4 1 5 5 1 1 2 6 5 5 8 6 4 4 7 8 5 3 3 4 3 2 1 0 1 1 0 1 2 2 3 5 5 5 5 6 6 6 7 8 8 9 8 8 8 9 9 9 9 9 8 8 9 8 8 8 9 10 9 10 9 9 7 6 7 6 6
2 2 1 5 3 6 3 9 4 4 3 6 7 7 7 2 4 2 3 1 4 5 0 2 1 1 10 8 7 8 9 7 7 8 6 4 5 5 5 4 3 2 1 1 2 2 2 4 6 6 5 4 5 8 8 8 8 7 8 9 10 10 8 9 8 10 9 9 9 9 9 8 8 9 9 9 9 9 10 9 9 8 8 7 7 8
3 2 3 3 3 3 5 10 2 1 0 5 7 6 5 1 1 2 3 1 5 6 5 1 1 5 3 6 14 15 12 6 6 7 5 5 6 5 4 4 4 3 2 4 4 4 5 5 5 5 5 6 6 6 8 8 8 7 7 8 10 10 9 8 8 9 10 10 9 8 8 8 8 9 9 9 9 9 9 8 10 10 9 9 11 10
4 3 6 5 2 2 3 5 12 8 9 7 1 9 9 8 5 4 4 5 5 5 2 3 1 7 3 2 1 8 11 5 6 7 4 3 4 4 5 4 3 4 4 4 4 5 6 6 5 6 5 6 6 7 7 6 6 6 7 8 10 8 8 9 10 8 10 9 9 8 8 8 7 8 8 8 7 8 9 8 9 9 8 9 10 11
7 3 3 2 2 1 8 1 3 5 5 0 3 5 6 6 6 1 4 2 0 1 1 1 6 4 5 2 7 7 6 8 7 6 4 2 2 1 1 4 5 5 5 5 5 6 7 5 4 4 5 6 6 7 6 7 7 8 9 8 9 10 9 9 9 9 10 9 8 8 9 9 8 7 7 7 7 7 8 9 9 9 9 9 8 9
2 4 2 6 4 1 1 0 0 2 5 4 4 4 5 2 8 5 1 1 1 3 8 2 8 6 8 6 9 6 3 9 6 6 5 6 4 2 5 5 5 5 5 6 7 8 7 5 5 6 7 7 6 6 9 8 8 9 8 8 8 8 6 9 10 10 9 9 8 10 10 9 9 9 10 9 9 9 8 8 8 8 9 8 8 8
10 4 2 3 2 1 1 0 1 3 3 7 1 7 2 2 4 5 3 2 2 3 7 1 7 4 3 7 4 1 2 5 5 7 7 6 5 5 8 5 6 8 8 7 7 6 5 4 5 6 6 7 8 8 7 8 7 7 7 8 9 9 10 9 9 10 9 10 10 9 10 10 10 9 9 9 9 8 8 8 7 7 7 8 8 7
7 3 0 1 0 5 3 0 3 2 1 3 4 3 7 3 1 1 4 2 1 2 5 4 2 6 9 9 2 1 2 3 2 6 7 8 9 9 9 4 5 5 4 6 8 8 7 7 7 8 9 7 6 6 6 5 6 6 6 7 9 11 10 9 8 7 7 7 7 7 9 9 10 9 8 8 8 8 9 10 9 9 9 8 8 8
1 5 2 1 2 2 2 3 9 3 2 1 2 3 0 2 2 5 6 4 5 4 1 8 4 9 6 7 8 6 6 5 3 4 6 12 11 9 7 4 4 5 7 9 8 7 7 8 8 9 9 8 8 7 6 6 6 7 7 7 8 5 5 5 7 7 9 8 7 7 6 7 8 8 9 9 9 9 10 9 9 9 9 9 8 9
5 1 4 1 2 2 3 4 8 10 8 1 2 3 1 1 2 4 1 3 3 4 5 2 7 8 7 6 8 9 7 6 6 8 7 7 9 6 6 6 6 5 5 5 6 6 8 9 7 7 6 5 4 5 5 6 8 8 7 8 7 9 8 9 9 8 9 7 8 8 9 8 8 8 8 9 9 10 10 9 9 9 9 6 8 8
3 2 8 2 1 6 6 2 5 10 10 11 13 12 12 9 5 5 6 2 2 3 3 2 10 10 6 3 8 6 8 7 6 6 7 6 7 7 7 6 5 4 5 6 5 5 6 6 6 5 4 4 4 6 7 7 7 7 9 10 9 9 10 10 9 9 9 8 8 10 10 9 7 8 7 10 10 10 10 9 9 8 7 8 8 8
4 4 9 5 7 8 4 1 2 3 2 1 2 6 6 3 7 5 5 5 2 3 4 4 1 10 5 8 6 5 4 6 3 6 3 3 4 5 5 4 5 5 5 5 4 4 6 5 5 5 5 6 8 8 7 7 9 10 10 9 9 10 13 10 9 8 8 8 9 10 9 8 8 7 8 9 10 11 10 9 8 7 9 9 8 8
6 5 5 2 1 4 3 4 1 1 1 3 3 2 5 6 6 8 5 7 8 1 2 1 1 10 1 1 2 3 3 2 0 0 4 1 2 2 3 3 3 3 5 6 5 5 4 4 4 4 5 5 6 6 7 8 8 8 9 10 8 12 13 8 8 8 8 9 10 9 8 9 8 9 10 11 10 10 9 8 7 7 8 8 7 9
4 3 9 3 2 2 4 3 2 2 0 3 2 3 4 3 2 2 5 2 2 8 8 7 9 11 0 2 1 3 3 1 1 1 1 1 2 4 4 5 5 6 7 6 6 6 5 5 5 5 5 6 6 6 7 9 10 9 10 8 11 12 8 8 7 8 9 9 9 8 9 9 9 10 11 11 9 10 9 9 8 7 9 7 8 8
6 5 9 7 11 10 8 10 16 15 10 2 2 4 7 11 7 5 2 2 4 6 10 8 11 7 0 2 1 4 5 4 3 3 3 3 4 6 5 6 7 7 7 8 8 6 6 6 5 6 6 5 6 8 8 9 9 10 9 11 10 9 9 10 7 9 9 9 9 10 11 11 10 12 12 11 11 11 10 9 9 9 8 8 9 8
4 3 8 12 15 15 17 7 4 12 5 6 8 10 7 6 9 7 4 5 14 4 8 15 16 10 5 2 2 4 2 6 6 7 8 7 6 5 5 7 7 6 6 7 6 6 6 7 10 9 6 8 6 6 7 8 9 9 9 9 9 10 9 8 9 10 10 9 10 10 12 12 12 12 11 11 11 9 9 10 10 10 10 8 9 9
4 6 11 13 15 15 10 4 8 15 13 15 12 10 11 10 11 11 12 15 6 10 10 15 5 8 21 8 6 9 10 8 7 8 11 8 6 9 10 9 8 7 7 6 6 8 9 10 9 8 10 7 7 6 8 8 8 8 8 11 9 8 7 8 8 9 9 8 10 11 12 12 11 10 10 9 9 9 10 9 10 11 9 8 10 11
6 8 8 6 10 10 2 5 8 9 12 13 14 13 14 15 12 16 18 19 10 12 19 6 11 12 20 11 9 13 12 10 13 16 10 10 8 7 8 9 9 9 9 8 10 9 9 10 11 12 9 5 4 8 10 8 8 8 9 9 8 5 8 5 6 8 9 8 11 13 11 8 7 7 8 9 9 10 11 10 9 9 9 10 10 9
4 5 6 7 12 10 4 7 8 12 7 5 9 12 17 16 19 21 21 20 15 13 13 10 9 15 18 8 8 11 11 10 9 2 2 6 8 10 8 8 9 10 9 10 11 11 10 11 11 9 4 5 7 9 9 9 10 9 9 10 8 6 6 6 8 8 8 9 12 11 7 7 6 8 8 9 11 11 10 9 9 9 9 10 10 10
5 6 7 5 5 8 7 3 4 8 8 8 6 9 13 17 19 22 20 18 13 10 9 7 8 14 17 3 4 12 9 2 4 5 10 9 6 7 9 10 9 10 11 11 10 11 10 7 5 5 6 8 8 10 10 9 8 6 8 9 7 7 5 5 8 8 9 12 12 9 6 7 9 8 10 11 10 9 9 9 8 9 10 9 9 11
4 4 2 3 5 5 4 8 8 3 1 2 5 7 12 15 15 12 13 7 6 11 14 11 12 16 15 3 11 9 4 6 12 13 9 7 10 10 10 11 10 11 11 11 11 10 8 5 5 7 8 9 8 7 7 8 8 6 8 6 6 6 4 6 7 9 10 11 8 6 8 9 8 9 10 9 11 10 10 9 9 10 10 10 10 9
6 5 5 3 6 6 5 7 9 6 2 3 10 15 19 12 12 9 2 2 12 15 11 11 16 15 16 4 4 9 7 9 11 8 9 9 9 9 11 11 11 10 10 10 9 9 6 6 7 8 7 6 6 6 9 8 5 5 6 6 6 3 6 7 9 9 10 9 7 9 9 8 9 10 10 11 10 9 8 10 11 12 11 12 11 8
5 8 7 5 6 6 2 6 6 8 9 12 13 14 11 14 17 9 6 15 16 11 11 15 16 13 8 5 10 16 12 8 13 13 9 10 9 10 9 8 10 9 9 8 6 5 6 6 6 6 7 8 7 6 3 2 4 6 4 4 3 5 6 6 7 8 9 7 9 9 7 7 8 10 11 9 8 8 9 10 13 11 10 9 8 10
8 6 5 3 3 5 4 8 6 11 12 10 5 2 12 15 12 18 20 17 13 13 11 9 11 14 18 15 12 12 9 8 9 11 9 7 7 6 8 8 7 9 9 5 4 6 6 6 5 4 1 1 2 3 2 3 3 4 4 3 4 4 5 6 6 7 8 9 9 7 7 8 10 11 10 9 8 9 10 12 10 10 10 10 11 11
9 9 4 1 4 3 3 4 8 9 4 2 3 7 4 7 8 5 5 7 9 11 15 19 21 21 17 15 12 10 8 9 7 9 8 6 5 9 8 9 9 6 5 6 5 3 2 1 1 0 1 1 2 3 1 3 2 2 3 1 4 4 4 5 6 7 6 9 8 8 9 9 10 10 9 9 9 10 11 11 11 12 10 9 9 9
11 6 6 6 4 9 6 9 9 2 4 2 4 5 7 7 7 10 11 12 16 17 14 16 18 18 16 13 13 12 6 2 7 11 2 8 9 5 5 6 5 5 5 3 4 3 3 3 3 2 1 1 3 3 3 3 3 2 2 2 2 3 4 4 6 7 7 9 8 8 9 9 10 10 9 9 9 11 12 11 11 10 8 9 10 10
1 10 5 9 5 7 8 6 2 4 12 12 13 1 4 5 5 6 7 10 6 11 14 14 18 18 14 13 14 13 2 4 13 12 5 6 2 1 2 3 1 2 3 3 2 2 2 2 2 2 1 1 3 2 2 3 3 1 2 3 3 3 4 4 8 8 7 9 8 8 8 8 8 9 9 9 11 12 11 10 8 9 9 11 11 12
4 3 1 12 4 7 6 9 9 10 11 8 5 5 7 5 8 5 3 13 9 7 10 14 14 15 14 14 17 6 2 8 13 7 2 2 2 3 4 2 2 4 5 4 4 3 2 1 1 1 1 2 4 3 2 3 1 1 3 3 4 3 5 7 8 8 8 9 7 6 7 7 7 9 9 10 12 10 11 11 11 9 8 10 9 10
3 1 3 5 6 6 9 10 12 4 7 6 5 3 2 5 9 7 8 13 5 10 13 13 11 15 17 8 1 5 8 9 12 8 3 2 0 2 1 4 4 4 4 4 2 2 1 1 2 2 3 3 3 1 2 2 1 2 3 4 2 4 7 9 9 6 5 6 6 6 6 6 7 9 9 11 10 9 10 8 7 8 9 9 9 9
4 0 4 13 11 12 13 9 4 6 4 2 5 3 2 5 10 10 17 10 6 9 4 9 13 7 3 5 7 6 8 8 3 2 1 2 1 1 1 2 3 1 1 1 1 4 2 2 1 3 4 4 4 3 2 1 1 4 4 4 4 8 10 7 5 5 6 6 6 6 6 6 7 9 10 9 9 9 8 7 8 7 8 9 7 8
3 3 1 2 10 12 12 14 12 6 6 7 1 8 8 7 7 15 5 0 5 1 2 1 3 2 4 5 5 5 2 3 2 3 2 0 2 3 4 4 5 4 2 2 4 3 3 3 4 4 6 3 3 2 2 1 3 5 5 4 7 10 5 4 5 5 5 6 6 6 6 7 8 8 9 8 7 7 8 7 7 8 8 7 7 9
12 9 9 11 6 4 3 8 7 13 5 7 11 1 3 7 6 3 2 1 2 2 4 3 3 3 5 2 2 4 2 0 1 0 1 3 2 2 2 4 4 4 4 4 4 3 2 4 5 5 5 5 3 2 1 0 3 5 5 6 11 6 5 5 5 5 5 6 7 7 7 7 8 8 6 7 7 8 9 6 7 7 7 8 7 8
7 11 5 7 9 11 12 12 9 6 2 6 12 8 5 7 1 3 5 4 0 2 4 4 1 3 2 5 4 1 1 0 1 1 1 1 1 2 2 2 3 4 4 3 3 4 1 3 4 5 5 4 4 2 1 2 4 5 6 10 8 5 5 4 5 5 6 7 7 7 7 7 7 7 6 7 7 7 8 6 6 6 7 7 8 8
5 9 6 12 7 10 8 9 4 3 3 1 4 2 2 3 4 1 4 4 5 1 0 5 3 1 1 4 3 3 3 0 1 0 0 3 3 4 4 5 4 5 5 6 6 4 1 3 5 6 7 5 4 2 2 3 4 5 8 7 4 5 5 5 5 6 7 8 7 7 7 6 6 6 6 6 6 7 7 6 6 7 6 6 7 7
3 1 2 5 4 1 1 2 2 2 2 1 5 2 3 4 4 4 5 6 3 1 2 5 3 3 3 2 5 1 1 1 0 2 3 4 4 5 4 5 6 4 4 4 5 4 3 3 3 4 7 9 7 4 1 2 3 6 9 6 6 6 5 6 7 8 8 8 7 7 6 6 6 5 6 6 6 8 7 8 8 8 7 7 7 7
1 0 1 2 1 6 5 0 2 1 3 5 7 3 4 4 4 3 5 4 2 2 1 0 1 2 3 2 1 1 1 2 2 3 2 2 3 4 4 4 5 5 5 6 6 5 5 4 5 6 6 7 7 6 4 3 4 7 8 8 7 6 5 6 6 9 8 8 8 6 5 6 7 6 5 5 5 6 6 6 7 7 7 7 7 7
2 1 2 1 1 5 2 3 3 4 4 4 4 6 6 8 6 7 6 5 6 7 6 6 3 3 1 4 3 1 4 2 1 3 1 2 3 4 4 3 4 4 5 5 6 5 4 5 6 6 6 8 9 6 6 6 6 6 7 7 6 6 6 7 7 8 9 8 7 7 5 7 7 7 6 6 6 6 6 6 6 7 9 9 9 8
2 4 3 2 4 3 2 2 1 5 8 4 6 6 5 6 5 7 8 9 9 10 10 8 6 5 5 6 5 5 5 5 5 4 3 2 1 2 2 3 3 3 4 4 3 3 4 5 6 6 6 9 8 8 8 8 8 7 7 7 6 5 6 9 7 8 8 8 6 8 5 6 6 6 6 6 5 6 5 7 7 8 6 5 7 8
4 2 1 4 1 1 5 3 2 3 2 1 6 7 8 8 5 7 10 12 13 12 11 10 7 5 7 9 9 8 8 7 7 6 5 4 5 5 5 6 5 5 5 4 4 4 5 4 4 7 8 9 7 7 8 9 9 8 6 6 6 5 7 8 8 7 9 7 7 7 6 6 6 5 6 6 6 5 3 4 6 5 5 6 5 8
4 5 5 5 5 4 3 2 2 5 7 4 4 4 6 7 8 11 10 8 8 8 8 8 10 9 10 8 8 9 8 7 8 7 6 5 6 6 5 6 9 10 10 9 10 11 9 9 6 6 8 8 6 7 8 9 9 8 8 6 6 5 7 6 7 8 8 7 7 7 7 6 6 6 6 5 5 3 4 1 0 3 5 5 5 6
Wind_Direction
101 126 170 188 191 196 186 177 172 180 156 120 87 98 170 150 265 290 292 271 58 98 238 231 257 273 274 263 268 269 291 248 255 257 252 252 249 246 245 241 238 233 235 241 219 207 204 203 199 189 174 172 171 173 175 174 181 178 176 165 183 177 164 157 151 147 148 140 131 123 186 182 180 177 165 162 148 185 179 163 165 164 171 171 169 179
66 121 221 211 200 180 192 172 99 74 64 136 129 118 135 91 162 227 170 358 328 139 298 15 283 262 259 270 267 271 292 263 238 241 249 248 243 243 241 246 235 235 280 225 220 213 194 197 196 180 175 166 170 198 181 184 185 177 168 180 173 164 175 175 164 155 160 160 169 154 175 150 155 164 178 191 227 200 175 174 172 161 171 173 172 169
63 175 237 221 200 126 78 124 96 125 111 46 135 156 102 52 221 317 300 328 310 76 265 352 328 271 262 262 268 253 246 249 233 220 237 238 249 246 246 247 247 245 242 231 230 209 204 196 188 182 185 190 193 181 185 179 162 173 178 184 169 174 171 171 157 151 167 130 133 133 158 149 115 25 105 154 193 194 179 201 195 187 174 174 173 169
120 285 239 206 139 123 58 89 105 72 64 106 95 112 190 225 108 259 281 345 359 93 296 326 322 283 281 271 259 259 240 262 254 232 245 232 242 240 237 233 238 244 242 229 213 208 206 192 186 181 189 193 179 170 173 172 178 177 180 179 172 173 167 164 169 162 149 129 112 92 122 110 111 172 112 66 65 91 172 224 210 221 192 181 173 169
187 210 134 104 60 135 134 83 113 114 105 15 118 121 127 166 217 149 191 156 339 10 53 2 316 299 326 344 329 306 317 288 285 298 265 257 236 250 277 284 226 237 229 231 217 228 194 186 194 194 188 165 177 182 183 179 181 181 181 178 173 170 172 169 167 163 145 119 95 88 72 81 78 54 88 106 229 210 219 208 204 215 201 190 185 176
286 264 126 91 75 68 112 109 161 130 84 348 246 169 186 164 127 86 23 114 21 352 326 45 358 309 301 304 250 274 331 314 274 340 292 259 245 254 250 248 255 251 241 222 211 204 197 196 188 175 170 181 186 187 190 180 176 168 174 174 172 164 166 173 176 166 156 162 154 147 146 163 181 191 184 201 200 198 203 207 187 197 206 197 185 184
195 359 132 163 123 93 88 137 203 114 154 111 236 170 151 133 115 117 76 74 358 171 321 40 158 269 323 293 292 284 308 298 305 298 279 284 260 233 245 249 243 240 253 253 237 190 178 201 183 192 189 190 188 196 166 169 174 175 173 176 171 171 174 174 173 167 164 166 177 183 187 189 194 200 211 199 200 195 199 182 194 201 204 204 187 187
98 48 70 65 86 92 108 126 206 134 116 189 234 117 115 103 113 150 107 116 200 257 296 35 113 208 301 287 244 305 326 291 296 284 279 271 304 265 249 241 242 243 227 213 212 193 198 194 189 193 194 188 195 167 162 173 174 177 178 175 177 172 173 177 170 175 177 177 184 189 193 193 198 203 198 189 193 183 185 197 197 190 202 205 202 188
142 172 135 106 79 104 175 210 149 120 115 216 182 130 146 139 144 117 93 104 91 60 285 333 276 272 253 267 303 329 319 304 274 267 271 285 297 267 265 271 250 236 233 205 186 194 194 196 204 195 190 193 158 169 178 183 181 176 173 173 170 177 176 180 177 178 188 185 185 189 189 196 202 194 186 177 176 187 190 201 202 200 197 199 208 198
354 161 215 147 132 185 232 269 180 127 77 263 134 89 86 77 68 91 98 85 350 61 270 251 179 214 277 277 327 339 256 262 261 269 273 273 278 284 276 262 263 290 260 236 233 224 214 209 204 190 144 159 192 184 175 170 162 169 165 173 179 188 182 178 182 184 189 189 185 191 197 197 195 188 178 174 181 191 188 201 198 202 199 197 196 201
234 326 171 86 173 189 135 92 153 228 131 124 93 77 35 38 29 26 60 88 67 311 252 238 291 175 295 269 227 159 209 204 265 296 289 291 301 296 266 246 243 135 167 225 244 259 233 233 186 158 178 187 176 173 171 173 175 173 175 179 187 191 182 181 185 186 192 192 193 198 197 199 196 193 176 178 187 184 190 200 200 199 202 195 196 192
12 3 45 277 81 92 102 85 17 56 79 119 98 124 64 353 14 28 342 35 158 271 265 244 211 129 190 288 283 239 267 238 228 263 281 299 292 278 260 265 266 283 198 54 96 249 138 127 167 172 190 186 186 171 181 184 179 181 184 181 187 191 189 187 189 190 196 194 200 204 198 199 200 192 194 192 189 191 195 197 197 197 196 201 199 195
36 59 273 334 205 124 113 84 356 14 9 81 86 64 125 241 40 276 14 261 219 209 257 337 161 334 241 221 262 279 262 260 220 218 232 268 274 271 271 266 268 285 316 111 183 192 189 188 189 197 201 181 189 194 190 189 187 185 185 185 186 197 191 193 189 195 197 198 202 203 203 202 200 202 200 201 198 192 197 195 194 190 198 194 200 201
272 287 353 298 0 214 134 124 132 80 219 110 137 138 100 115 82 247 274 249 307 290 266 294 305 254 261 273 230 244 247 211 226 227 245 255 248 252 263 284 278 268 244 245 219 197 207 205 208 206 196 194 199 203 199 195 190 187 188 190 195 200 189 191 195 197 199 206 204 204 206 204 198 207 205 208 204 199 201 194 196 194 195 196 202 198
112 307 261 146 209 188 191 166 177 165 166 202 98 147 176 146 156 208 195 201 214 205 289 283 64 234 125 255 295 246 271 284 264 271 267 246 240 250 267 267 276 282 262 242 240 218 215 218 204 200 199 202 206 204 202 199 193 186 195 192 202 198 195 194 199 197 205 206 206 206 209 209 204 206 208 214 210 201 202 201 200 200 198 200 201 202
196 182 273 273 254 191 172 252 110 98 50 306 156 81 90 222 139 149 209 146 216 327 339 219 218 191 174 274 290 253 284 303 291 296 358 321 297 329 299 242 232 235 251 251 247 247 243 226 214 207 212 213 208 203 201 199 194 197 201 199 204 203 194 197 199 206 205 208 204 205 208 211 209 206 205 216 212 211 205 203 201 202 202 205 203 208
70 225 349 310 36 115 181 177 280 120 171 221 109 199 208 139 99 93 48 25 108 41 257 160 307 293 300 316 260 300 308 275 292 306 315 284 286 298 253 247 245 240 243 246 238 234 238 226 227 219 216 216 210 205 205 203 199 201 196 199 207 210 200 201 204 206 205 207 205 210 209 209 210 207 207 211 213 210 209 208 207 205 206 203 203 203
149 222 337 75 204 1 272 172 101 23 152 98 150 232 185 141 118 129 202 350 67 190 266 89 240 302 17 283 322 359 325 285 251 258 258 277 282 270 251 231 223 226 227 239 248 253 250 237 232 234 232 222 215 208 205 207 201 202 201 199 205 206 206 206 204 208 207 207 212 213 213 213 212 211 210 210 212 205 204 208 209 208 204 206 200 196
119 86 274 329 256 280 350 84 39 356 71 144 196 199 112 222 225 304 92 242 143 268 272 296 276 255 200 245 1 245 152 74 186 234 259 273 268 250 257 238 260 256 268 256 245 244 245 228 225 226 231 229 225 217 211 204 199 203 208 210 208 212 210 205 204 208 214 213 217 217 218 216 217 215 210 212 211 205 206 207 206 205 207 201 195 196
90 142 276 326 136 303 359 100 194 196 6 44 61 86 128 102 169 129 200 172 124 240 43 287 28 259 193 212 187 203 223 220 247 284 247 236 239 253 269 258 223 246 240 236 233 237 241 237 227 223 223 223 218 213 209 203 201 209 207 212 222 227 217 207 207 203 212 210 215 223 223 227 226 220 213 211 210 211 212 210 206 206 204 202 193 199
181 128 168 272 300 95 190 197 208 158 154 125 128 209 193 26 226 114 42 127 173 170 183 249 310 266 257 209 171 209 226 237 229 238 238 247 257 257 258 258 262 242 238 245 236 234 239 240 238 234 232 233 229 220 209 203 205 207 205 216 212 214 216 216 209 202 212 200 212 215 217 217 219 225 219 219 216 218 216 212 208 208 204 187 200 192
109 153 160 150 72 218 241 245 179 192 188 179 172 194 177 131 142 150 256 30 97 105 228 148 260 268 254 193 192 190 224 224 237 228 238 248 257 256 264 266 243 263 270 241 235 235 246 253 255 255 246 235 227 229 215 206 202 206 209 211 208 211 220 216 210 205 205 203 208 214 215 216 218 218 222 220 221 225 221 214 210 205 192 197 199 189
142 136 105 174 210 196 219 275 255 237 355 219 175 239 172 148 107 123 172 252 26 243 111 170 71 280 202 172 212 203 208 229 239 183 201 238 247 265 266 249 255 235 256 276 269 246 246 250 245 234 228 223 223 229 222 211 208 210 210 208 210 210 225 210 211 202 199 204 209 215 214 214 214 211 220 223 223 226 224 220 213 201 201 200 195 196
93 90 82 325 314 313 306 302 330 76 97 302 278 97 139 189 175 171 167 181 169 162 131 320 270 258 352 319 282 240 197 261 107 269 338 325 298 297 288 302 289 301 279 278 278 262 251 255 247 233 234 235 235 234 233 232 230 221 214 210 206 219 225 206 208 197 199 207 214 211 209 214 211 210 215 220 223 227 224 221 219 206 210 204 192 197
157 270 134 113 23 343 344 339 341 325 155 208 177 204 182 135 100 129 101 75 169 211 173 148 226 262 273 322 270 27 357 340 322 92 136 13 319 293 304 301 300 286 289 295 289 282 302 283 256 240 228 225 232 229 224 227 228 225 225 210 211 222 211 208 200 199 207 205 212 210 211 215 207 213 215 218 218 225 221 220 219 215 213 202 203 201
184 175 139 153 177 179 199 198 213 208 194 194 239 185 193 172 153 122 162 172 204 246 156 195 238 233 33 316 42 3 4 338 317 293 290 245 251 269 278 288 287 288 276 271 268 286 280 279 279 256 235 230 227 223 226 230 228 230 230 223 213 214 207 210 192 204 205 206 208 212 214 215 210 216 215 214 217 218 216 216 215 216 219 207 208 202
167 175 190 189 191 203 211 206 54 94 84 187 218 174 197 191 183 170 108 126 214 190 166 225 224 253 247 247 260 274 303 269 296 324 316 301 290 307 294 273 261 264 278 284 291 286 294 284 261 253 249 233 230 227 232 231 233 233 234 239 226 217 210 201 192 203 206 206 209 214 217 213 215 213 213 213 216 214 214 215 214 211 215 208 210 206
94 187 217 207 214 215 210 164 195 146 173 205 184 193 187 174 183 176 180 217 158 91 236 234 203 241 258 212 225 257 262 275 265 255 261 258 259 263 268 273 285 286 277 278 278 270 260 259 268 261 249 244 240 248 248 242 240 237 232 238 235 224 212 203 195 205 210 206 215 220 222 218 215 211 212 212 212 214 215 215 216 214 209 203 211 212
146 197 224 177 236 236 185 165 172 173 184 195 192 179 177 188 182 191 213 221 145 192 231 207 141 223 252 242 187 235 239 226 238 244 236 243 254 260 264 267 271 275 275 268 259 256 250 249 249 251 250 248 259 253 251 250 248 244 245 245 246 221 223 198 192 211 211 212 221 227 225 220 213 212 212 211 212 215 217 215 217 218 213 208 213 213
149 226 206 179 216 232 195 168 188 179 202 196 192 187 188 178 193 201 215 218 198 217 235 236 191 226 243 247 158 225 231 229 241 264 222 226 232 237 246 254 251 253 257 256 253 251 247 246 250 254 270 266 244 249 251 248 244 239 239 246 243 227 223 172 208 212 213 219 227 230 219 211 206 207 209 213 215 218 216 215 215 215 220 219 215 215
154 258 144 145 195 245 228 184 194 206 179 193 216 199 193 194 200 206 213 222 211 241 256 272 278 271 258 220 241 243 236 254 293 254 233 230 231 233 234 240 246 246 249 253 259 260 255 261 281 284 265 254 246 241 243 246 248 242 237 241 239 234 209 178 211 215 215 225 228 226 210 205 211 204 211 215 216 217 214 216 214 218 223 225 220 218
157 236 50 94 175 269 219 168 206 132 64 196 233 211 208 204 210 220 219 203 160 209 228 241 258 255 264 150 236 259 122 204 235 241 241 241 236 236 241 246 243 244 246 250 255 260 271 270 250 244 245 250 253 251 244 242 238 226 239 241 240 232 183 194 212 219 225 231 232 220 214 215 210 210 220 215 217 212 210 207 212 218 220 219 221 220
168 141 153 141 177 233 272 172 147 116 84 283 247 226 210 206 209 218 200 178 207 197 201 211 233 242 254 224 217 264 216 226 249 248 239 237 241 231 235 238 240 246 246 247 254 261 255 240 236 239 250 258 260 250 237 226 218 230 242 241 240 183 188 206 212 222 230 233 225 224 218 212 208 215 219 219 216 212 207 210 214 217 215 217 215 205
147 158 183 170 182 229 187 121 120 110 193 220 223 219 169 193 208 188 177 208 217 185 207 212 229 245 257 235 220 247 243 208 236 242 214 216 224 235 239 243 244 249 258 254 250 253 255 248 248 242 231 228 230 228 251 207 212 242 245 240 212 187 212 209 225 223 236 234 230 227 220 213 212 220 223 220 215 209 211 213 220 220 219 221 214 214
171 171 189 183 132 199 110 111 102 202 220 221 248 139 200 215 203 198 213 213 214 215 235 268 275 258 243 241 243 251 248 237 242 252 242 219 222 229 235 243 242 241 249 263 261 242 236 243 256 258 292 319 308 307 341 314 235 261 278 235 207 210 209 219 225 229 230 235 235 223 217 212 214 221 223 217 211 210 216 217 223 219 216 213 213 214
168 170 143 171 140 63 104 149 210 229 213 283 260 217 224 206 230 216 279 277 248 219 208 225 236 244 250 253 254 247 239 239 256 258 255 256 206 221 229 236 248 247 250 232 223 244 241 240 237 239 276 262 324 317 287 263 276 244 259 195 210 217 220 223 231 238 233 239 234 223 219 214 219 222 220 216 211 214 220 219 218 219 214 216 219 222
171 136 158 208 191 204 172 200 222 352 345 237 256 242 167 168 155 172 226 236 227 223 215 226 239 249 253 257 258 261 249 299 280 270 208 218 231 244 227 232 216 219 212 236 204 215 214 217 211 231 231 303 290 280 286 298 320 303 320 313 267 238 249 234 245 243 235 241 236 227 223 216 218 222 220 215 215 220 222 220 221 223 209 217 219 219
127 181 188 191 228 184 211 240 251 220 238 236 226 189 201 187 149 166 184 260 237 216 211 217 233 242 249 253 254 254 255 301 276 273 251 240 230 279 296 264 237 216 190 197 216 238 242 255 269 288 215 252 281 274 288 323 332 347 321 293 289 269 265 248 252 249 243 246 240 233 227 222 218 224 222 216 221 224 225 222 224 221 205 213 215 220
29 72 145 203 193 172 208 228 228 232 236 224 244 197 205 175 148 115 187 251 244 185 186 209 226 237 235 236 245 231 138 245 256 256 265 246 287 206 149 187 186 199 194 187 173 182 223 247 238 280 2 12 342 322 338 346 5 354 297 285 276 260 265 255 256 253 245 249 248 243 235 228 224 226 225 223 227 223 224 220 219 217 207 218 220 227
103 109 112 196 212 198 207 222 233 227 253 239 210 245 233 140 115 108 222 247 247 155 192 197 209 226 231 234 94 120 177 229 252 260 236 225 216 190 187 176 190 219 235 245 275 242 278 34 19 359 337 325 287 293 321 334 5 313 287 285 283 274 260 256 252 261 263 262 256 243 237 227 226 229 227 231 232 226 227 224 220 214 210 218 217 225
165 101 201 210 206 217 217 243 273 264 258 198 193 203 150 163 136 174 226 245 195 193 223 194 208 214 125 144 166 187 217 204 206 225 335 357 0 323 273 261 253 252 335 351 330 14 352 338 334 274 276 280 294 309 325 7 352 293 274 269 283 263 256 259 272 271 265 262 258 249 238 232 225 232 233 230 232 227 229 217 218 211 210 217 216 221
194 167 298 211 224 213 216 224 232 266 229 175 249 153 159 114 211 213 232 117 134 122 11 160 165 182 155 152 173 195 219 223 273 333 329 326 260 275 297 322 341 348 319 264 273 316 329 339 328 322 308 295 288 303 349 5 304 286 290 290 269 264 292 291 276 272 266 259 253 249 243 236 237 230 237 236 229 233 231 222 213 212 210 211 209 216
186 178 181 197 201 239 221 234 224 236 245 141 121 107 268 185 232 195 140 3 108 168 116 81 125 179 140 130 184 160 175 351 292 288 314 311 330 301 317 329 326 307 308 332 336 352 11 318 307 298 289 306 321 304 313 71 278 283 289 279 267 291 302 282 282 277 272 269 265 255 246 240 233 234 228 233 224 228 236 217 213 215 205 206 209 214
167 206 186 219 183 206 203 213 217 221 158 178 154 203 201 202 214 162 133 132 232 164 135 109 135 183 201 133 167 168 189 162 29 25 349 316 291 291 273 259 270 291 298 270 233 266 241 252 268 275 283 287 287 270 226 201 262 272 270 267 277 287 286 293 288 288 282 274 268 265 260 252 245 238 229 227 221 221 229 219 212 211 208 206 205 211
223 208 185 207 179 198 209 213 202 180 167 266 29 38 58 25 22 159 122 121 126 115 192 92 106 101 157 116 95 85 62 117 155 269 304 264 296 307 316 310 314 311 311 311 309 312 271 259 288 308 308 300 288 248 219 201 234 275 280 276 295 294 300 294 290 283 276 275 272 270 270 267 259 249 238 229 209 217 217 216 194 209 210 200 210 211
304 163 51 86 302 292 315 207 290 58 116 76 47 49 83 50 19 50 80 86 27 151 168 113 163 159 189 184 115 218 172 193 260 299 274 295 300 299 315 323 324 327 316 315 310 325 303 305 300 305 302 308 309 312 252 223 205 267 272 289 296 288 287 287 288 281 273 273 271 271 271 274 268 255 247 235 219 218 211 202 197 203 199 194 208 208
334 30 118 146 254 150 254 4 108 138 66 91 101 56 55 73 55 46 58 50 75 46 15 309 137 142 162 163 111 156 230 191 205 268 289 281 285 283 300 315 307 302 305 310 300 328 329 330 321 307 300 299 297 304 301 280 256 252 276 284 285 289 286 285 277 278 279 275 275 273 267 260 261 256 247 232 230 224 215 201 196 198 196 195 200 203
272 148 94 203 119 173 220 94 78 41 80 71 55 48 26 10 13 41 49 37 22 26 27 359 343 34 48 17 12 28 315 349 11 338 351 300 286 305 304 284 276 296 294 282 293 309 312 309 298 296 294 290 291 297 297 289 281 276 277 280 285 290 293 284 276 276 279 279 278 276 265 258 253 246 242 231 214 216 219 214 196 196 198 192 194 192
173 66 196 171 175 269 335 321 346 67 52 48 36 41 30 359 354 30 39 45 37 34 16 11 19 351 16 357 5 12 11 351 9 4 3 312 282 258 260 261 251 245 254 276 268 253 261 278 291 284 289 284 291 301 301 297 293 295 291 288 292 290 289 281 280 274 276 276 278 271 256 245 246 235 232 232 232 233 219 204 202 205 219 219 198 194
72 124 191 79 93 198 198 227 135 125 148 99 36 20 6 357 16 45 31 32 26 20 10 4 21 27 31 26 22 23 22 357 354 4 3 352 337 335 339 340 330 328 320 311 303 311 310 290 271 286 289 288 292 292 292 293 293 294 291 291 287 279 272 274 276 274 271 269 264 263 256 248 241 234 228 223 218 224 264 251 201 214 200 220 222 221
134 199 137 158 155 201 178 201 172 121 84 47 65 20 26 5 37 48 37 27 19 14 3 10 6 15 23 18 26 32 22 7 350 350 2 3 346 341 339 342 341 336 333 337 338 333 330 319 312 299 291 286 290 288 288 289 290 295 294 289 282 266 263 266 271 270 268 266 262 252 246 244 240 234 221 218 203 201 198 228 356 199 189 187 201 207